Tracking 22438 objects as of 24-Feb-2021
HD Live streaming from Space Station
objects crossing your sky now

METEOR 2-20 DEB

Track METEOR 2-20 DEB now!
10-day predictions


NORAD ID: 44698
Int'l Code: 1990-086C
Perigee: 926.6 km
Apogee: 943.7 km
Inclination: 82.5 °
Period: 103.6 minutes
Semi major axis: 7306 km
RCS: Unknown
Launch date: September 28, 1990
Source: Commonwealth of Independent States (former USSR) (CIS)
Launch site: PLESETSK MISSILE AND SPACE COMPLEX (PKMTR)

Note: This is SATELLITE DEBRIS
aabbcc
Your satellite tracking list
Your tracking list is empty




NASA's NSSDC Master Catalog

Two Line Element Set (TLE):
1 44698U 90086C   21055.34506617  .00000641  00000-0  50665-3 0  9995
2 44698  82.5191 287.9984 0011663 263.5888  96.3948 13.90181394347926
Source of the keplerian elements: AFSPC